{"data":{"norad_id":62645,"epoch":"2026-09-18T23:49:06.001248Z","epoch_age_seconds":144623,"freshness":"FRESH","line1":"1 62645U 25009AN  26261.99243057  .00007843  00000+0  26505-3 0  9997","line2":"2 62645  97.3950 343.6263 0001470   7.3851 352.7411 15.30921700 93262","mean_motion":15.309217,"eccentricity":0.000147,"inclination_deg":97.395,"raan_deg":343.6263,"arg_perigee_deg":7.3851,"mean_anomaly_deg":352.7411,"bstar":0.00026505,"rev_number":9326,"period_min":94.060983001286,"perigee_km":472.05392376845,"apogee_km":474.06817599511,"semimajor_km":6851.1980498818,"source":"CELESTRAK","updated_at":"2026-09-20T09:00:34.719886Z"}}